Location: ??
(34.7252°N, 135.5457°E)
Time: 09:07:34
(UTC+00:00)

IRIDIUM 104 - Pass Details

Date: 24 September 2020
Orbit: 776 x 779 km, 86.4° (Epoch: 23 October)

Event Time Altitude Azimuth Distance (km) Brightness Sun altitude
Rises 18:45:28 0° 354° (N) 3,263 7.7 -25.6°
Reaches altitude 10° 18:47:50 10° 352° (N) 2,332 6.9 -25.1°
Maximum altitude 18:53:01 68° 271° (W) 835 4.2 -24.1°
Enters shadow 18:53:25 65° 241° (WSW) 852 4.2 -24.1°
